Wetbulb
17.30 17.74 18.75 19.89 20.01 19.49 19.02 19.19 20.05 20.15 19.60 18.82 18.55 18.55 18.66 18.52 18.43 18.70 19.05 19.28 19.30 19.46 19.74 20.13 20.46 20.80 21.09 21.47 21.81 22.01 22.20 22.28 22.12 22.43 22.59 22.21 21.61 21.55 21.59 21.73 21.79 21.81 21.81 21.89 21.99 22.06 22.06 22.09 22.06 22.03 22.11 22.27 22.32 22.49 22.70 23.06 22.61 22.49 22.60 22.75 22.90 23.18 23.42 23.61 23.88 24.37 24.94 25.56 26.40
16.84 17.49 18.56 20.03 20.10 19.49 18.93 19.05 19.36 19.44 19.25 18.87 18.89 18.85 18.81 18.78 18.70 18.83 19.04 19.30 19.66 19.94 20.17 20.46 20.89 21.05 21.21 21.65 22.22 22.20 21.89 21.49 21.27 21.41 21.49 21.29 21.21 21.25 21.41 21.45 21.53 21.67 21.81 21.79 21.85 21.92 21.96 21.95 21.86 21.84 21.92 22.12 22.17 22.22 22.38 22.76 22.76 22.66 22.57 22.67 23.11 23.54 23.89 24.06 24.52 25.11 25.71 26.19 26.71
16.61 17.01 17.49 17.71 17.97 18.02 18.10 18.26 18.28 18.19 18.24 18.63 19.00 19.13 19.11 19.11 19.17 19.21 19.42 19.74 20.15 20.41 20.50 20.62 21.01 21.35 21.59 21.77 22.01 21.81 21.43 21.00 20.90 20.78 20.74 20.78 20.94 21.10 21.19 21.31 21.39 21.65 21.93 21.93 21.81 21.83 21.92 21.91 22.05 22.13 22.13 21.94 21.75 21.65 21.68 21.99 22.78 22.92 22.87 22.93 23.61 24.04 24.37 24.64 25.15 25.59 25.99 26.22 26.30
16.37 16.46 16.87 17.48 17.44 17.53 17.69 18.03 17.87 17.89 18.11 18.66 18.89 19.08 19.24 19.38 19.58 19.74 19.94 20.23 20.45 20.58 20.69 20.73 21.11 21.55 21.87 21.81 21.37 21.21 21.25 21.63 21.43 21.03 20.74 20.74 20.86 21.01 21.17 21.25 21.24 21.29 21.47 21.59 21.61 21.67 21.84 21.92 21.95 21.98 21.86 21.58 21.42 21.46 21.81 22.46 23.05 23.24 23.41 23.81 24.21 24.48 24.73 25.00 25.46 25.66 25.79 25.72 25.89
16.16 16.52 17.21 18.03 17.55 17.64 17.95 18.11 17.55 17.52 18.00 18.72 18.84 18.88 19.05 19.50 19.78 20.02 20.20 20.37 20.41 20.63 20.93 21.29 21.41 21.75 21.85 21.43 20.87 20.69 20.83 21.27 22.17 21.69 20.73 20.55 20.77 21.03 21.19 21.22 21.18 21.27 21.33 21.51 21.53 21.57 21.61 21.71 21.80 21.75 21.64 21.54 21.56 21.74 22.11 22.60 22.98 23.22 23.65 24.22 24.61 24.80 24.92 25.02 25.18 25.33 25.35 25.32 25.52
16.18 16.61 17.25 18.17 17.73 17.74 17.92 17.82 17.00 16.93 17.44 18.40 18.17 18.02 18.29 19.03 19.58 19.91 20.04 20.14 20.49 20.91 21.43 22.21 22.31 22.20 21.73 20.53 20.32 20.39 20.61 20.65 21.11 20.99 20.72 20.66 20.92 21.10 21.12 21.14 21.24 21.25 21.31 21.35 21.37 21.45 21.47 21.50 21.55 21.57 21.62 21.69 21.60 21.84 22.24 22.68 22.73 22.98 23.31 23.65 24.07 24.34 24.45 24.35 24.64 24.88 24.99 25.00 24.98
16.52 17.12 17.72 18.34 18.22 17.91 17.53 17.22 16.96 16.85 17.21 18.20 17.76 17.63 17.83 18.40 19.27 19.78 20.04 20.43 20.77 21.13 21.69 22.47 21.83 21.13 20.49 19.94 20.11 20.33 20.51 20.71 20.76 20.84 20.90 20.84 21.02 21.10 21.17 21.19 21.24 21.27 21.24 21.27 21.33 21.39 21.43 21.39 21.30 21.44 21.76 22.21 21.83 21.78 22.01 22.38 22.40 22.38 22.37 22.45 23.06 23.46 23.75 23.87 24.39 24.75 24.81 24.71 24.71
16.61 17.39 18.11 18.47 18.65 18.48 18.01 17.23 17.18 17.39 17.83 18.48 18.28 18.29 18.52 19.06 19.76 20.08 20.27 20.50 20.74 21.10 21.45 21.69 20.83 20.14 19.79 19.94 20.27 20.43 20.56 20.56 20.68 20.88 21.03 21.05 20.99 21.01 21.11 21.21 21.19 21.21 21.29 21.39 21.35 21.31 21.33 21.40 21.21 21.04 21.04 21.23 21.25 21.36 21.64 22.01 21.92 21.72 21.58 21.51 22.16 22.82 23.45 23.99 24.57 24.78 24.70 24.56 24.50
16.59 17.43 18.17 18.60 19.07 19.19 18.79 17.64 17.56 18.04 18.60 18.83 19.04 19.25 19.68 20.37 20.39 20.22 20.11 20.21 20.92 21.24 21.24 21.03 20.59 20.25 20.15 20.37 20.46 20.64 20.76 20.82 20.87 20.97 21.12 21.24 21.10 21.10 21.12 21.22 21.21 21.23 21.35 21.61 21.55 21.39 21.25 21.16 20.99 20.85 20.84 20.87 20.85 20.99 21.30 21.62 21.40 21.23 21.15 21.15 21.72 22.42 23.21 23.85 24.20 24.26 24.20 24.12 24.19
17.09 17.81 18.26 18.54 19.05 19.43 19.35 18.10 18.60 19.04 19.37 19.48 19.68 19.91 20.48 21.65 20.83 20.18 20.06 20.49 21.02 20.87 20.53 20.61 20.60 20.53 20.57 20.66 20.76 20.96 21.13 21.21 21.18 21.15 21.18 21.33 21.49 21.34 21.18 21.22 21.20 21.19 21.39 21.69 21.67 21.49 21.21 20.89 20.59 20.50 20.53 20.69 20.62 20.70 20.86 21.15 21.01 20.92 20.97 21.30 21.88 22.36 22.79 23.32 23.54 23.71 23.78 24.08 24.18
17.75 18.44 18.81 18.79 19.09 19.47 19.62 19.00 19.68 20.03 20.07 19.85 19.80 19.81 20.05 20.43 19.82 19.83 20.21 20.65 20.30 19.99 20.02 20.58 20.68 20.75 20.79 20.96 21.08 21.31 21.54 21.53 21.43 21.37 21.30 21.29 21.53 21.49 21.37 21.37 21.43 21.41 21.48 21.56 21.60 21.45 21.10 20.74 20.48 20.32 20.37 20.62 20.77 20.85 20.88 21.07 21.08 21.03 21.08 21.52 22.02 22.28 22.31 22.66 23.13 23.45 23.69 24.11 24.36
18.46 18.85 19.09 19.07 19.20 19.29 19.45 19.53 19.90 20.07 20.07 19.84 19.59 19.45 19.22 18.83 19.01 19.63 20.12 19.86 19.48 19.66 20.13 20.85 21.07 21.09 21.09 21.19 21.29 21.63 21.81 21.57 21.51 21.46 21.42 21.32 21.37 21.42 21.54 21.66 21.71 21.61 21.58 21.59 21.58 21.46 21.22 20.81 20.53 20.34 20.35 20.55 20.88 21.03 21.21 21.30 21.25 21.28 21.31 21.63 21.87 21.97 22.06 22.41 22.95 23.44 23.95 24.33 24.59
18.69 18.85 18.86 18.91 19.04 19.21 19.39 19.66 19.76 19.81 19.76 19.39 19.06 18.94 18.93 18.87 19.41 19.82 19.77 19.07 19.36 19.89 20.51 21.17 21.47 21.51 21.39 21.35 21.33 21.41 21.50 21.54 21.49 21.51 21.46 21.41 21.51 21.54 21.64 21.74 21.74 21.65 21.58 21.58 21.70 21.61 21.39 21.11 20.83 20.62 20.58 20.67 20.95 21.24 21.57 21.66 21.54 21.41 21.31 21.42 21.64 21.72 21.92 22.28 22.90 23.52 24.03 24.39 24.71
18.67 18.66 18.65 18.68 18.92 19.24 19.56 19.56 19.66 19.63 19.40 18.82 18.64 18.68 18.81 18.87 19.62 19.94 19.72 18.76 19.27 19.96 20.55 21.05 21.57 21.87 21.75 21.39 21.29 21.35 21.48 21.62 21.58 21.45 21.42 21.58 21.63 21.61 21.65 21.66 21.70 21.69 21.67 21.75 21.86 21.88 21.68 21.51 21.43 21.32 21.21 21.09 21.28 21.60 21.92 21.98 21.79 21.69 21.53 21.55 21.61 21.70 22.06 22.50 23.00 23.56 23.95 24.27 25.12
18.54 18.47 18.50 18.66 19.06 19.29 19.41 19.32 19.57 19.47 19.17 18.49 18.54 18.69 18.84 18.81 19.57 19.92 19.81 18.83 19.35 20.06 20.64 20.75 21.05 21.45 21.61 21.39 21.31 21.39 21.54 21.62 21.54 21.44 21.37 21.50 21.55 21.65 21.64 21.68 21.82 21.88 21.94 21.92 22.06 22.11 22.13 22.04 21.95 21.87 21.72 21.62 21.66 21.93 22.13 22.28 22.14 22.09 22.04 22.00 21.95 22.13 22.32 22.62 23.17 23.66 24.23 24.88 25.98
18.27 18.34 18.50 18.64 18.90 19.00 19.12 19.18 19.39 19.41 19.03 18.46 18.46 18.49 18.61 18.66 19.17 19.60 19.74 19.25 19.65 20.20 20.54 20.34 20.40 20.54 20.82 21.42 21.52 21.59 21.53 21.53 21.45 21.31 21.19 21.15 21.31 21.52 21.68 21.80 21.95 22.15 22.28 22.25 22.29 22.47 22.63 22.61 22.59 22.41 22.27 21.97 21.96 22.13 22.25 22.38 22.40 22.40 22.44 22.47 22.47 22.52 22.70 23.07 23.55 24.23 25.11 26.50 26.95
18.11 18.23 18.34 18.42 18.48 18.66 18.74 18.82 19.03 19.04 18.79 18.24 18.15 18.22 18.38 18.55 18.71 19.27 19.80 19.91 19.76 19.87 20.01 19.70 19.88 19.94 20.19 20.84 21.28 21.45 21.52 21.35 21.28 21.18 21.13 21.20 21.35 21.56 21.84 22.09 22.53 22.88 23.13 23.36 23.25 23.22 23.25 23.17 23.20 23.13 22.91 22.61 22.42 22.38 22.50 22.68 22.80 22.83 22.90 22.98 23.02 23.11 23.34 24.19 25.16 26.14 27.15 28.02 27.59
17.97 18.05 18.12 18.05 17.97 18.17 18.42 18.40 18.61 18.46 18.22 17.91 17.97 18.06 18.22 18.32 18.24 18.65 19.16 19.62 19.64 19.64 19.51 19.06 19.39 19.56 19.73 19.79 20.39 21.22 21.66 21.37 21.17 21.24 21.29 21.50 21.77 22.04 22.41 22.86 23.41 24.22 25.06 25.67 25.33 24.90 24.36 23.82 23.76 23.68 23.56 23.28 23.09 23.08 23.15 23.30 23.34 23.41 23.50 23.67 24.04 24.52 25.25 26.28 27.44 28.48 29.06 28.84 28.61
17.81 17.85 17.86 17.67 17.94 18.12 18.31 18.54 18.46 18.25 18.11 18.09 18.05 17.97 17.96 17.92 17.88 18.00 18.25 18.64 19.57 19.76 19.39 18.73 19.06 19.36 19.56 19.72 20.14 21.11 21.94 21.65 21.37 21.34 21.62 21.91 22.28 22.66 23.13 23.76 24.20 25.68 27.23 27.63 27.16 26.75 26.18 25.38 24.95 24.55 24.23 23.95 23.87 23.79 23.91 23.95 24.04 24.16 24.43 25.00 26.06 27.23 28.03 28.26 28.62 28.92 29.09 29.02 29.08
17.66 17.63 17.69 17.96 18.16 18.06 18.08 18.44 18.58 18.60 18.44 18.36 17.88 17.65 17.56 17.71 17.89 17.83 17.85 18.29 19.35 19.51 19.18 18.61 18.82 19.12 19.41 19.77 20.10 20.68 21.36 21.86 21.54 21.48 21.72 22.21 22.56 23.11 23.74 24.42 24.84 26.88 28.57 27.71 27.36 27.11 26.90 26.70 26.34 25.91 25.47 25.24 25.09 24.94 24.94 25.03 25.34 25.89 26.45 26.83 27.12 27.39 27.62 27.69 27.78 27.81 27.91 28.11 28.37
17.56 17.58 17.81 18.35 18.27 18.19 18.40 19.29 19.50 19.22 18.62 18.02 17.58 17.41 17.43 17.64 17.72 17.79 17.93 18.56 19.12 19.12 18.87 18.63 18.71 19.01 19.24 19.61 19.88 20.17 20.78 21.85 21.53 21.56 21.80 22.38 22.84 23.61 24.47 25.07 25.40 27.74 29.39 27.78 27.05 26.63 26.37 26.32 26.35 26.28 26.10 26.00 25.83 25.82 25.83 25.91 25.78 25.84 25.99 26.09 26.21 26.30 26.45 26.63 26.75 26.79 26.86 26.94 27.27
17.33 17.79 18.29 18.69 18.82 19.15 19.61 20.18 19.74 19.02 18.27 17.75 17.50 17.41 17.39 17.52 17.70 17.93 18.23 18.69 18.98 18.88 18.70 18.67 18.95 19.16 19.38 19.64 19.80 20.13 20.59 21.40 21.32 21.61 21.99 22.38 22.97 23.93 24.86 25.41 26.11 28.34 29.97 28.62 27.65 26.71 26.01 25.60 25.44 25.32 25.13 24.81 24.53 24.57 24.68 24.60 24.38 24.26 24.33 24.55 24.87 25.25 25.56 25.78 25.91 26.12 26.13 26.16 26.31
17.01 17.70 18.63 19.04 19.26 19.97 20.46 20.29 19.33 18.48 17.77 17.47 17.37 17.35 17.39 17.56 17.83 18.12 18.33 18.44 18.87 18.78 18.64 18.90 19.34 19.53 19.69 19.85 19.93 20.09 20.31 20.53 20.72 21.26 21.77 22.19 22.89 23.72 24.58 25.25 26.79 28.83 30.32 29.86 29.03 27.79 26.49 25.38 24.83 24.51 24.23 23.86 23.36 23.16 23.10 23.07 23.13 23.11 23.06 23.21 23.55 23.93 24.32 24.68 24.90 25.33 25.68 25.97 25.92
17.00 17.76 18.90 19.49 19.56 19.71 19.63 19.29 18.39 17.77 17.41 17.16 17.14 17.28 17.39 17.60 17.91 18.11 18.24 18.27 18.23 18.31 18.57 19.25 19.67 19.96 20.10 20.16 20.06 19.99 19.99 19.92 20.02 20.52 21.16 21.82 22.69 23.48 24.26 24.92 26.91 28.78 30.15 30.77 31.36 30.66 29.02 26.93 25.15 24.29 23.86 23.49 22.94 22.60 22.36 22.21 22.16 22.08 22.05 22.10 22.32 22.56 22.92 23.39 23.78 24.25 24.90 25.60 25.65
17.41 18.18 19.21 19.56 19.61 19.38 18.95 18.40 17.77 17.30 17.05 17.07 17.16 17.22 17.41 17.56 17.87 18.00 17.96 17.93 17.96 18.21 18.68 19.07 19.48 20.14 20.53 20.25 20.01 19.95 19.93 19.77 19.76 20.02 20.54 21.16 22.28 23.18 23.96 24.56 26.56 28.34 30.07 31.87 34.34 34.70 33.43 31.01 27.90 25.33 23.61 22.94 22.65 22.29 22.01 21.76 21.58 21.51 21.46 21.49 21.53 21.54 21.59 21.89 22.48 23.04 23.87 24.94 25.32
17.80 18.48 19.19 19.54 19.45 18.86 18.23 17.70 17.35 17.07 16.87 17.01 17.06 17.12 17.27 17.47 17.85 17.77 17.56 17.52 17.72 18.27 18.91 19.30 19.67 20.79 21.43 20.08 19.69 19.59 19.61 19.72 19.78 20.00 20.33 20.68 21.75 22.75 23.47 23.88 25.88 27.72 29.80 32.27 34.15 34.79 34.51 33.68 31.55 28.29 24.95 22.49 22.16 21.83 21.51 21.24 21.26 21.19 21.11 20.96 21.01 20.84 20.76 20.82 21.30 21.96 22.84 24.16 25.01
17.77 18.71 19.29 19.68 19.10 18.54 18.02 17.65 17.25 16.94 16.79 16.84 16.78 16.94 17.15 17.44 17.67 17.56 17.32 17.28 17.65 18.43 19.24 19.68 19.90 21.06 21.50 19.68 19.06 18.90 19.00 19.39 19.64 19.94 20.28 20.54 21.45 22.32 23.04 23.54 25.17 26.97 29.15 31.65 32.87 33.37 33.52 33.33 32.36 30.19 27.03 23.08 22.02 21.43 21.08 20.67 20.79 20.75 20.66 20.44 20.41 20.33 20.34 20.34 20.73 21.32 22.13 23.27 24.50
17.86 18.90 19.43 19.74 18.79 18.14 17.75 17.46 16.94 16.61 16.55 16.63 16.66 16.87 17.19 17.29 17.12 17.08 17.12 17.26 17.66 18.86 19.92 20.18 20.46 20.45 20.05 19.18 18.75 18.52 18.61 18.94 19.47 19.97 20.35 20.58 21.43 22.24 22.85 23.04 24.52 27.27 30.07 31.74 32.11 32.22 32.19 32.16 31.64 30.47 28.33 24.85 22.24 21.16 20.89 20.44 20.30 20.18 20.02 19.83 19.76 19.85 20.01 20.17 20.62 21.00 21.55 22.45 24.00
18.63 19.17 19.33 19.43 18.52 17.81 17.25 16.90 16.57 16.43 16.50 16.50 16.70 16.91 17.08 17.19 17.01 16.98 17.02 17.14 17.68 18.83 19.85 20.06 20.41 19.85 19.02 18.35 18.31 18.33 18.43 18.62 19.16 19.80 20.34 20.41 21.28 22.21 22.95 23.03 24.13 27.43 30.79 31.94 31.77 31.58 31.40 31.22 30.85 30.11 28.86 26.63 22.96 21.11 20.39 20.09 19.76 19.55 19.45 19.33 19.27 19.37 19.67 19.93 20.27 20.65 21.21 22.06 23.43
18.97 19.13 19.07 19.15 18.13 17.47 16.95 16.59 16.52 16.52 16.61 16.87 16.84 16.81 16.86 17.02 16.84 16.83 16.89 17.01 17.77 18.85 19.73 19.85 19.40 18.68 17.89 17.56 17.85 17.96 18.21 18.54 19.08 19.60 19.97 20.16 21.15 22.10 22.94 23.53 23.97 27.31 30.74 31.71 31.57 31.29 30.94 30.67 30.27 29.64 28.77 27.29 23.68 21.16 19.71 19.45 19.02 18.79 18.77 18.79 18.77 18.85 19.06 19.35 19.57 19.90 20.34 21.13 22.80
18.88 18.72 18.72 19.10 18.24 17.49 16.93 16.77 16.72 16.59 16.59 16.82 16.63 16.70 16.80 16.77 16.63 16.68 16.93 17.39 18.39 19.70 20.31 19.42 18.41 17.62 17.31 17.30 17.48 17.47 17.68 18.19 18.60 19.08 19.54 19.87 21.31 22.19 22.70 22.91 23.42 27.28 31.17 31.55 31.41 31.12 30.77 30.32 29.79 29.17 28.43 27.32 23.85 20.88 18.94 18.63 18.29 18.12 18.08 18.10 18.06 18.21 18.42 18.77 18.94 19.23 19.63 20.13 21.84
18.53 18.61 18.84 18.72 18.19 17.73 17.42 17.29 16.99 16.68 16.45 16.35 16.55 16.71 16.76 16.69 16.76 16.88 17.37 18.35 19.23 19.25 18.83 18.32 17.76 17.33 17.03 16.95 16.95 17.07 17.37 17.83 18.17 18.88 19.50 19.95 20.42 21.38 22.31 22.88 22.94 27.18 31.59 31.77 31.51 31.18 30.79 30.20 29.57 28.89 28.02 26.95 23.68 20.27 17.93 17.83 17.64 17.62 17.56 17.45 17.41 17.58 17.91 18.31 18.60 18.65 18.81 19.55 20.88
18.51 18.52 18.53 18.43 18.31 18.15 18.00 17.49 17.12 16.80 16.58 16.61 16.81 16.83 16.88 16.88 16.99 17.20 17.81 19.19 19.60 18.85 17.87 17.52 17.38 17.09 16.77 16.50 16.44 16.69 17.16 18.03 18.13 18.76 19.52 20.05 20.18 20.97 21.90 22.41 22.44 27.06 32.20 32.55 31.73 31.24 30.88 30.18 29.46 28.69 27.71 26.57 22.62 19.29 17.25 17.18 17.33 17.46 17.48 17.41 17.41 17.49 17.64 17.75 18.17 18.39 18.62 19.19 20.35
18.25 18.44 18.73 18.90 18.62 18.45 18.12 17.47 17.11 16.92 16.71 16.74 16.91 17.03 16.99 16.99 16.82 17.06 17.97 19.98 20.04 19.09 18.06 17.66 17.46 17.24 16.94 16.65 16.37 16.59 17.34 18.72 17.86 17.47 17.72 18.66 19.58 20.53 21.30 21.47 21.91 26.49 31.84 33.73 32.11 31.35 30.95 30.29 29.52 28.54 27.32 25.68 21.21 18.17 16.69 16.46 16.86 16.95 17.01 16.97 17.18 17.22 17.35 17.56 17.96 18.23 18.60 19.13 20.34
17.79 18.35 18.85 19.12 18.76 18.40 17.96 17.27 16.99 16.80 16.65 16.55 16.78 16.90 16.99 16.93 16.74 17.00 18.27 20.76 20.63 19.30 17.92 17.69 17.72 17.65 17.42 17.08 16.65 16.98 17.43 17.24 16.61 16.82 17.58 18.56 19.33 20.04 20.49 20.52 21.36 25.43 30.54 33.99 32.55 31.56 30.91 30.45 29.61 28.44 26.66 23.82 19.75 17.51 16.62 16.33 16.60 16.59 16.46 16.56 16.72 16.71 16.74 17.08 17.69 18.15 18.55 19.13 20.26
17.33 17.94 18.60 19.36 19.04 18.41 17.73 17.09 16.74 16.56 16.39 16.37 16.50 16.67 16.78 16.82 16.87 17.47 18.91 21.43 20.22 18.70 17.51 17.50 17.74 17.59 17.22 16.87 16.69 17.16 17.29 15.86 15.93 16.61 17.61 18.85 19.18 19.40 19.60 19.78 20.36 24.03 28.91 33.23 32.92 32.03 31.08 30.35 29.54 28.13 25.60 21.67 18.66 17.37 17.03 16.85 16.83 16.54 16.22 16.21 16.34 16.28 16.35 16.67 17.29 17.80 18.24 18.93 20.45
17.01 18.08 18.89 19.15 18.91 18.25 17.45 16.80 16.35 16.12 15.97 16.03 16.25 16.37 16.48 16.55 16.95 17.83 19.16 21.06 18.83 17.63 17.19 17.20 17.16 16.95 16.65 16.59 16.46 16.32 16.10 15.82 16.13 16.64 17.43 18.67 18.97 19.21 19.40 19.39 19.41 22.31 26.88 31.86 32.82 32.55 31.57 30.41 29.48 27.62 24.44 19.78 17.67 16.99 16.90 16.74 16.66 16.42 16.08 15.80 15.89 15.76 15.93 16.65 17.09 17.50 17.86 18.45 21.14
16.80 18.02 18.90 19.01 18.60 17.87 17.14 16.44 15.91 15.59 15.54 15.82 16.03 16.25 16.44 16.53 17.18 18.12 19.40 20.91 18.27 17.06 16.83 16.82 16.41 16.25 16.32 16.81 16.97 16.58 16.05 15.87 16.68 17.01 16.96 17.06 18.06 19.38 19.89 18.98 18.98 21.15 25.19 30.29 32.12 32.75 32.35 30.96 29.63 27.53 24.07 18.93 16.55 16.07 16.33 16.08 15.76 15.63 15.65 15.63 15.76 15.48 15.48 16.31 17.01 17.43 17.79 18.50 22.92
16.73 18.04 18.86 18.88 18.25 17.43 16.59 15.76 15.44 15.27 15.39 15.67 15.89 16.10 16.40 16.67 17.56 18.67 19.64 20.14 17.77 16.75 16.53 16.57 15.90 15.86 16.62 18.44 17.74 16.68 15.73 15.68 16.31 16.90 17.02 16.41 18.15 20.65 21.72 19.17 18.69 20.51 24.23 29.10 31.29 32.36 32.50 31.93 30.27 28.11 24.71 19.57 15.92 15.04 15.25 14.95 14.47 14.40 14.66 15.16 15.42 15.26 15.07 15.53 16.21 16.87 17.54 18.33 23.53
16.94 17.91 18.52 18.61 18.02 17.01 16.00 15.25 15.08 15.18 15.44 15.69 15.76 16.08 16.61 17.31 18.24 19.02 19.38 19.05 17.62 16.99 16.86 16.84 15.88 15.94 17.22 19.99 17.89 16.15 15.16 15.40 15.55 16.05 16.81 17.63 19.10 21.86 22.98 19.47 18.36 19.81 23.09 27.75 30.45 31.73 32.27 32.53 31.42 29.10 25.16 19.18 15.18 14.09 14.14 13.60 13.20 13.19 13.63 14.39 14.84 15.16 15.18 14.95 15.64 16.40 17.11 17.61 21.04
16.80 17.62 18.17 18.34 17.55 16.50 15.38 14.82 14.80 15.12 15.39 15.46 15.52 16.50 17.73 18.70 18.15 17.92 17.80 17.78 17.48 17.34 17.38 17.49 16.55 16.10 16.70 18.90 17.35 15.72 14.68 14.89 15.32 15.76 16.51 18.12 18.59 20.38 21.06 18.37 17.91 19.02 21.63 25.53 29.29 31.22 31.98 32.29 32.21 30.73 27.16 20.84 15.39 13.77 13.70 13.07 12.55 12.23 12.46 13.22 14.21 14.92 15.29 15.20 15.96 16.76 17.59 18.37 18.86
MSLP
1035.54 1035.40 1035.20 1034.98 1034.80 1034.64 1034.48 1034.24 1034.04 1033.90 1033.74 1033.58 1033.32 1033.10 1032.90 1032.64 1032.36 1032.04 1031.76 1031.52 1031.24 1030.96 1030.64 1030.32 1030.04 1029.76 1029.46 1029.20 1028.92 1028.62 1028.36 1028.14 1027.92 1027.68 1027.46 1027.24 1026.98 1026.74 1026.48 1026.26 1026.04 1025.82 1025.62 1025.40 1025.18 1024.98 1024.80 1024.58 1024.40 1024.18 1023.96 1023.70 1023.46 1023.26 1023.08 1022.92 1022.74 1022.58 1022.40 1022.20 1022.02 1021.80 1021.58 1021.36 1021.10 1020.86 1020.64 1020.46 1020.24
1035.58 1035.46 1035.32 1035.10 1034.96 1034.80 1034.58 1034.36 1034.14 1034.02 1033.90 1033.70 1033.46 1033.18 1032.92 1032.68 1032.36 1032.04 1031.76 1031.48 1031.24 1030.96 1030.64 1030.30 1030.02 1029.70 1029.40 1029.08 1028.82 1028.58 1028.32 1028.08 1027.86 1027.62 1027.36 1027.10 1026.86 1026.64 1026.40 1026.18 1025.92 1025.70 1025.48 1025.24 1025.02 1024.80 1024.62 1024.42 1024.20 1023.98 1023.74 1023.52 1023.32 1023.10 1022.92 1022.76 1022.62 1022.42 1022.20 1022.02 1021.82 1021.64 1021.40 1021.14 1020.90 1020.64 1020.42 1020.24 1020.04
1035.64 1035.48 1035.36 1035.20 1035.04 1034.86 1034.64 1034.42 1034.24 1034.08 1033.92 1033.70 1033.48 1033.24 1032.96 1032.68 1032.36 1032.08 1031.76 1031.46 1031.18 1030.90 1030.58 1030.24 1029.92 1029.64 1029.32 1029.02 1028.76 1028.58 1028.36 1028.08 1027.80 1027.48 1027.24 1026.96 1026.68 1026.46 1026.20 1025.98 1025.74 1025.52 1025.30 1025.10 1024.90 1024.68 1024.46 1024.26 1024.04 1023.80 1023.54 1023.32 1023.14 1022.96 1022.76 1022.62 1022.46 1022.26 1022.02 1021.82 1021.62 1021.42 1021.20 1020.98 1020.70 1020.52 1020.32 1020.10 1019.98
1035.68 1035.54 1035.36 1035.18 1035.04 1034.92 1034.74 1034.52 1034.32 1034.14 1033.92 1033.70 1033.46 1033.20 1032.92 1032.68 1032.36 1032.04 1031.74 1031.40 1031.08 1030.76 1030.48 1030.20 1029.90 1029.58 1029.26 1028.98 1028.76 1028.52 1028.26 1027.96 1027.68 1027.32 1027.02 1026.76 1026.48 1026.24 1026.02 1025.80 1025.54 1025.32 1025.10 1024.92 1024.70 1024.46 1024.26 1024.08 1023.86 1023.62 1023.40 1023.18 1022.98 1022.82 1022.62 1022.36 1022.24 1022.08 1021.86 1021.64 1021.46 1021.24 1021.04 1020.82 1020.64 1020.46 1020.26 1020.08 1019.92
1035.68 1035.58 1035.42 1035.24 1035.08 1034.92 1034.74 1034.54 1034.32 1034.14 1033.92 1033.68 1033.40 1033.14 1032.86 1032.58 1032.30 1031.98 1031.62 1031.26 1030.98 1030.74 1030.46 1030.14 1029.82 1029.52 1029.24 1028.98 1028.70 1028.42 1028.10 1027.76 1027.46 1027.14 1026.82 1026.52 1026.24 1025.98 1025.76 1025.54 1025.36 1025.10 1024.86 1024.64 1024.46 1024.26 1024.04 1023.86 1023.68 1023.42 1023.20 1023.02 1022.82 1022.62 1022.42 1022.26 1022.08 1021.90 1021.70 1021.52 1021.30 1021.14 1020.96 1020.76 1020.62 1020.42 1020.24 1020.08 1019.86
1035.70 1035.54 1035.40 1035.24 1035.08 1034.92 1034.74 1034.52 1034.30 1034.10 1033.86 1033.62 1033.32 1033.04 1032.80 1032.52 1032.20 1031.86 1031.54 1031.24 1030.96 1030.68 1030.36 1030.04 1029.76 1029.48 1029.18 1028.90 1028.62 1028.26 1027.90 1027.54 1027.20 1026.92 1026.62 1026.30 1026.02 1025.74 1025.48 1025.26 1025.04 1024.82 1024.62 1024.40 1024.18 1023.98 1023.82 1023.68 1023.46 1023.20 1022.98 1022.80 1022.58 1022.40 1022.24 1022.14 1021.96 1021.76 1021.58 1021.40 1021.24 1021.04 1020.92 1020.76 1020.54 1020.40 1020.20 1019.98 1019.76
1035.74 1035.54 1035.36 1035.18 1034.98 1034.80 1034.64 1034.42 1034.20 1033.98 1033.76 1033.52 1033.24 1032.96 1032.70 1032.42 1032.08 1031.76 1031.46 1031.18 1030.90 1030.58 1030.26 1029.96 1029.70 1029.42 1029.10 1028.80 1028.46 1028.08 1027.70 1027.32 1026.98 1026.68 1026.40 1026.10 1025.76 1025.48 1025.24 1024.98 1024.74 1024.52 1024.30 1024.10 1023.90 1023.70 1023.54 1023.40 1023.18 1022.96 1022.74 1022.58 1022.36 1022.14 1022.02 1021.96 1021.82 1021.64 1021.46 1021.30 1021.14 1021.02 1020.86 1020.70 1020.52 1020.32 1020.10 1019.90 1019.64
1035.76 1035.54 1035.36 1035.18 1034.96 1034.74 1034.54 1034.32 1034.10 1033.90 1033.64 1033.40 1033.10 1032.82 1032.58 1032.26 1031.96 1031.64 1031.36 1031.10 1030.82 1030.54 1030.26 1029.96 1029.64 1029.32 1029.02 1028.70 1028.26 1027.86 1027.48 1027.10 1026.76 1026.46 1026.14 1025.82 1025.54 1025.24 1024.92 1024.68 1024.46 1024.18 1023.96 1023.76 1023.54 1023.36 1023.20 1023.04 1022.90 1022.70 1022.54 1022.36 1022.14 1021.92 1021.80 1021.74 1021.68 1021.54 1021.40 1021.24 1021.04 1020.92 1020.76 1020.62 1020.42 1020.20 1019.98 1019.76 1019.48
1035.74 1035.52 1035.32 1035.14 1034.92 1034.70 1034.48 1034.26 1034.04 1033.80 1033.54 1033.30 1033.02 1032.76 1032.46 1032.14 1031.82 1031.58 1031.32 1031.04 1030.80 1030.52 1030.24 1029.92 1029.54 1029.20 1028.90 1028.52 1028.10 1027.70 1027.32 1026.92 1026.54 1026.24 1025.92 1025.58 1025.26 1024.96 1024.68 1024.36 1024.08 1023.82 1023.58 1023.36 1023.18 1023.02 1022.86 1022.76 1022.58 1022.42 1022.26 1022.08 1021.86 1021.70 1021.62 1021.54 1021.48 1021.40 1021.24 1021.04 1020.90 1020.74 1020.62 1020.46 1020.30 1020.08 1019.86 1019.68 1019.40
1035.68 1035.46 1035.26 1035.08 1034.86 1034.64 1034.42 1034.20 1033.96 1033.70 1033.46 1033.20 1032.92 1032.68 1032.40 1032.04 1031.76 1031.54 1031.32 1031.08 1030.80 1030.52 1030.20 1029.86 1029.48 1029.08 1028.68 1028.30 1027.90 1027.52 1027.14 1026.76 1026.40 1026.04 1025.68 1025.36 1025.02 1024.68 1024.36 1024.08 1023.80 1023.52 1023.24 1022.98 1022.80 1022.64 1022.52 1022.40 1022.24 1022.04 1021.92 1021.82 1021.68 1021.54 1021.42 1021.40 1021.30 1021.18 1021.02 1020.86 1020.68 1020.52 1020.40 1020.26 1020.10 1019.92 1019.74 1019.54 1019.32
1035.68 1035.48 1035.26 1035.08 1034.86 1034.62 1034.36 1034.14 1033.86 1033.62 1033.36 1033.14 1032.86 1032.62 1032.30 1032.02 1031.74 1031.52 1031.30 1031.08 1030.76 1030.48 1030.18 1029.76 1029.36 1028.96 1028.54 1028.14 1027.74 1027.36 1026.98 1026.62 1026.26 1025.86 1025.46 1025.08 1024.74 1024.42 1024.10 1023.80 1023.48 1023.18 1022.86 1022.62 1022.46 1022.30 1022.14 1021.96 1021.80 1021.68 1021.58 1021.52 1021.42 1021.30 1021.20 1021.10 1021.02 1020.92 1020.80 1020.68 1020.52 1020.36 1020.20 1020.02 1019.90 1019.76 1019.64 1019.46 1019.24
1035.68 1035.48 1035.30 1035.10 1034.86 1034.58 1034.32 1034.08 1033.82 1033.58 1033.32 1033.08 1032.82 1032.52 1032.24 1031.96 1031.70 1031.48 1031.24 1031.04 1030.80 1030.46 1030.08 1029.68 1029.26 1028.86 1028.46 1028.02 1027.64 1027.24 1026.86 1026.48 1026.08 1025.64 1025.20 1024.80 1024.46 1024.14 1023.82 1023.48 1023.14 1022.80 1022.48 1022.24 1022.08 1021.92 1021.70 1021.52 1021.40 1021.26 1021.20 1021.14 1021.14 1021.04 1020.96 1020.86 1020.80 1020.68 1020.54 1020.42 1020.32 1020.18 1019.98 1019.82 1019.74 1019.64 1019.54 1019.36 1019.08
1035.74 1035.54 1035.32 1035.10 1034.82 1034.58 1034.32 1034.04 1033.80 1033.54 1033.26 1033.04 1032.80 1032.48 1032.20 1031.92 1031.68 1031.46 1031.24 1031.02 1030.76 1030.42 1029.98 1029.58 1029.18 1028.76 1028.36 1027.98 1027.58 1027.18 1026.76 1026.30 1025.82 1025.32 1024.90 1024.48 1024.18 1023.82 1023.52 1023.18 1022.82 1022.46 1022.10 1021.80 1021.58 1021.42 1021.24 1021.08 1020.98 1020.92 1020.86 1020.82 1020.80 1020.74 1020.68 1020.64 1020.54 1020.46 1020.36 1020.20 1020.10 1019.98 1019.82 1019.70 1019.62 1019.52 1019.40 1019.20 1018.98
1035.80 1035.58 1035.36 1035.08 1034.80 1034.54 1034.30 1034.04 1033.76 1033.52 1033.24 1033.02 1032.76 1032.48 1032.20 1031.92 1031.68 1031.48 1031.26 1031.02 1030.74 1030.40 1029.96 1029.48 1029.08 1028.70 1028.32 1027.96 1027.54 1027.10 1026.64 1026.14 1025.62 1025.10 1024.62 1024.20 1023.90 1023.54 1023.20 1022.90 1022.48 1022.08 1021.68 1021.26 1020.98 1020.82 1020.68 1020.58 1020.54 1020.52 1020.52 1020.48 1020.46 1020.42 1020.40 1020.40 1020.36 1020.24 1020.14 1020.02 1019.92 1019.86 1019.76 1019.62 1019.48 1019.36 1019.24 1019.08 1018.82
1035.80 1035.62 1035.36 1035.08 1034.80 1034.54 1034.32 1034.04 1033.76 1033.52 1033.26 1033.02 1032.74 1032.48 1032.20 1031.96 1031.70 1031.48 1031.26 1031.02 1030.70 1030.32 1029.92 1029.48 1029.04 1028.64 1028.26 1027.90 1027.48 1027.04 1026.54 1026.02 1025.46 1024.92 1024.42 1023.96 1023.58 1023.20 1022.82 1022.46 1022.04 1021.62 1021.18 1020.68 1020.32 1020.14 1020.08 1020.10 1020.10 1020.14 1020.18 1020.18 1020.18 1020.18 1020.18 1020.14 1020.10 1020.04 1019.96 1019.92 1019.86 1019.76 1019.64 1019.46 1019.32 1019.20 1019.08 1018.92 1018.70
1035.80 1035.58 1035.36 1035.08 1034.82 1034.58 1034.32 1034.04 1033.82 1033.54 1033.26 1033.02 1032.74 1032.48 1032.26 1031.98 1031.74 1031.48 1031.24 1030.96 1030.64 1030.26 1029.86 1029.48 1029.08 1028.68 1028.24 1027.82 1027.42 1026.96 1026.46 1025.90 1025.40 1024.82 1024.30 1023.80 1023.32 1022.90 1022.46 1021.98 1021.54 1021.08 1020.58 1020.04 1019.68 1019.48 1019.46 1019.54 1019.68 1019.80 1019.90 1019.90 1019.92 1019.92 1019.92 1019.92 1019.90 1019.90 1019.86 1019.80 1019.74 1019.64 1019.52 1019.32 1019.18 1019.04 1018.92 1018.74 1018.52
1035.80 1035.62 1035.36 1035.10 1034.86 1034.62 1034.36 1034.10 1033.86 1033.58 1033.30 1033.02 1032.76 1032.52 1032.26 1031.98 1031.76 1031.52 1031.26 1030.96 1030.64 1030.20 1029.80 1029.46 1029.10 1028.70 1028.26 1027.82 1027.40 1026.92 1026.42 1025.90 1025.32 1024.80 1024.24 1023.70 1023.24 1022.76 1022.26 1021.68 1021.08 1020.46 1019.82 1019.30 1018.98 1018.86 1018.90 1019.04 1019.26 1019.46 1019.62 1019.68 1019.74 1019.74 1019.74 1019.76 1019.76 1019.76 1019.74 1019.68 1019.62 1019.48 1019.36 1019.20 1019.02 1018.86 1018.70 1018.54 1018.36
1035.80 1035.62 1035.36 1035.08 1034.86 1034.64 1034.40 1034.14 1033.90 1033.62 1033.32 1033.04 1032.80 1032.54 1032.26 1032.02 1031.80 1031.54 1031.30 1030.98 1030.64 1030.20 1029.80 1029.46 1029.10 1028.74 1028.32 1027.90 1027.46 1026.98 1026.48 1025.96 1025.42 1024.86 1024.30 1023.74 1023.26 1022.76 1022.20 1021.52 1020.80 1020.04 1019.40 1018.90 1018.64 1018.58 1018.68 1018.82 1019.02 1019.24 1019.42 1019.58 1019.64 1019.64 1019.64 1019.70 1019.70 1019.70 1019.68 1019.62 1019.48 1019.30 1019.18 1019.08 1018.92 1018.76 1018.62 1018.48 1018.32
1035.80 1035.58 1035.36 1035.10 1034.86 1034.64 1034.40 1034.14 1033.86 1033.62 1033.32 1033.04 1032.80 1032.54 1032.26 1032.02 1031.80 1031.58 1031.30 1030.96 1030.62 1030.20 1029.80 1029.48 1029.10 1028.74 1028.32 1027.92 1027.48 1027.02 1026.54 1026.10 1025.62 1025.04 1024.42 1023.80 1023.26 1022.74 1022.20 1021.62 1020.92 1020.24 1019.64 1019.24 1018.96 1018.86 1018.90 1018.96 1019.08 1019.26 1019.42 1019.58 1019.64 1019.68 1019.68 1019.70 1019.70 1019.70 1019.64 1019.52 1019.32 1019.18 1019.04 1018.98 1018.92 1018.82 1018.74 1018.58 1018.40
1035.80 1035.58 1035.36 1035.10 1034.90 1034.68 1034.42 1034.14 1033.86 1033.58 1033.32 1033.04 1032.80 1032.54 1032.26 1032.02 1031.76 1031.54 1031.30 1030.98 1030.58 1030.20 1029.86 1029.52 1029.14 1028.74 1028.36 1027.96 1027.52 1027.04 1026.62 1026.24 1025.80 1025.30 1024.68 1024.02 1023.32 1022.76 1022.30 1021.86 1021.36 1020.74 1020.20 1019.90 1019.68 1019.48 1019.40 1019.36 1019.42 1019.52 1019.64 1019.68 1019.74 1019.74 1019.74 1019.76 1019.74 1019.68 1019.58 1019.42 1019.32 1019.24 1019.18 1019.10 1019.02 1018.90 1018.76 1018.62 1018.46
1035.82 1035.62 1035.36 1035.14 1034.90 1034.68 1034.42 1034.10 1033.82 1033.54 1033.30 1033.04 1032.80 1032.52 1032.26 1031.98 1031.74 1031.54 1031.30 1030.98 1030.62 1030.24 1029.90 1029.54 1029.18 1028.80 1028.42 1027.98 1027.58 1027.14 1026.74 1026.36 1026.02 1025.58 1025.02 1024.40 1023.68 1022.98 1022.48 1022.14 1021.74 1021.18 1020.68 1020.48 1020.32 1020.20 1020.08 1020.04 1020.02 1020.02 1020.02 1019.98 1019.98 1019.96 1019.90 1019.90 1019.80 1019.70 1019.64 1019.54 1019.48 1019.42 1019.36 1019.24 1019.14 1018.98 1018.82 1018.68 1018.48
1035.86 1035.64 1035.40 1035.10 1034.90 1034.64 1034.36 1034.04 1033.80 1033.54 1033.30 1033.02 1032.76 1032.52 1032.24 1031.98 1031.76 1031.54 1031.26 1030.98 1030.62 1030.26 1029.92 1029.58 1029.24 1028.90 1028.52 1028.10 1027.70 1027.30 1026.90 1026.52 1026.18 1025.76 1025.30 1024.76 1024.10 1023.36 1022.74 1022.30 1021.96 1021.48 1021.04 1020.92 1020.82 1020.80 1020.74 1020.68 1020.62 1020.58 1020.48 1020.42 1020.40 1020.32 1020.24 1020.14 1020.08 1019.98 1019.92 1019.82 1019.76 1019.68 1019.58 1019.46 1019.32 1019.20 1019.02 1018.80 1018.58
1035.90 1035.68 1035.40 1035.08 1034.86 1034.58 1034.26 1033.98 1033.76 1033.52 1033.30 1033.02 1032.74 1032.48 1032.24 1032.02 1031.80 1031.54 1031.26 1030.98 1030.64 1030.30 1029.96 1029.64 1029.30 1028.96 1028.58 1028.18 1027.80 1027.46 1027.08 1026.68 1026.32 1025.90 1025.48 1025.02 1024.46 1023.80 1023.14 1022.62 1022.14 1021.70 1021.40 1021.26 1021.20 1021.20 1021.20 1021.18 1021.14 1021.04 1020.96 1020.86 1020.80 1020.76 1020.70 1020.64 1020.58 1020.48 1020.40 1020.30 1020.18 1020.04 1019.90 1019.74 1019.58 1019.42 1019.20 1018.98 1018.76
1035.86 1035.64 1035.36 1035.04 1034.80 1034.54 1034.26 1033.98 1033.74 1033.52 1033.26 1033.02 1032.76 1032.48 1032.24 1032.02 1031.76 1031.52 1031.26 1031.02 1030.68 1030.32 1029.98 1029.70 1029.36 1029.02 1028.62 1028.24 1027.86 1027.54 1027.26 1026.90 1026.52 1026.08 1025.64 1025.20 1024.70 1024.18 1023.62 1023.04 1022.52 1022.10 1021.82 1021.62 1021.42 1021.42 1021.52 1021.64 1021.64 1021.58 1021.48 1021.36 1021.32 1021.26 1021.24 1021.20 1021.10 1021.04 1020.92 1020.82 1020.68 1020.48 1020.30 1020.08 1019.86 1019.64 1019.42 1019.20 1018.96
1035.86 1035.62 1035.30 1035.02 1034.74 1034.48 1034.24 1033.98 1033.74 1033.52 1033.26 1033.02 1032.76 1032.52 1032.26 1032.04 1031.80 1031.58 1031.32 1031.04 1030.74 1030.40 1030.04 1029.74 1029.42 1029.04 1028.68 1028.30 1027.92 1027.62 1027.36 1027.08 1026.76 1026.36 1025.92 1025.46 1024.98 1024.52 1024.02 1023.54 1023.08 1022.64 1022.30 1021.96 1021.62 1021.52 1021.62 1021.82 1021.96 1022.04 1022.02 1021.90 1021.80 1021.74 1021.64 1021.58 1021.54 1021.46 1021.36 1021.24 1021.08 1020.92 1020.70 1020.46 1020.20 1019.92 1019.64 1019.40 1019.14
1035.80 1035.52 1035.24 1034.96 1034.70 1034.46 1034.24 1033.98 1033.76 1033.52 1033.26 1032.98 1032.74 1032.52 1032.30 1032.08 1031.82 1031.62 1031.40 1031.14 1030.80 1030.46 1030.10 1029.82 1029.48 1029.14 1028.76 1028.42 1028.04 1027.74 1027.46 1027.20 1026.92 1026.58 1026.20 1025.80 1025.32 1024.86 1024.42 1024.02 1023.58 1023.10 1022.70 1022.30 1021.98 1021.82 1021.82 1021.90 1022.10 1022.26 1022.36 1022.32 1022.24 1022.10 1022.02 1021.96 1021.86 1021.76 1021.68 1021.54 1021.40 1021.24 1021.08 1020.82 1020.58 1020.26 1019.96 1019.64 1019.32
1035.74 1035.48 1035.20 1034.92 1034.68 1034.42 1034.20 1033.96 1033.74 1033.48 1033.26 1033.02 1032.76 1032.54 1032.32 1032.10 1031.86 1031.64 1031.46 1031.20 1030.90 1030.54 1030.18 1029.90 1029.62 1029.30 1028.96 1028.62 1028.26 1027.92 1027.64 1027.36 1027.08 1026.76 1026.46 1026.08 1025.68 1025.20 1024.80 1024.46 1024.02 1023.54 1023.08 1022.64 1022.40 1022.26 1022.18 1022.14 1022.20 1022.36 1022.52 1022.62 1022.54 1022.46 1022.36 1022.24 1022.10 1022.02 1021.90 1021.76 1021.64 1021.48 1021.32 1021.10 1020.90 1020.62 1020.26 1019.92 1019.58
1035.68 1035.42 1035.18 1034.90 1034.64 1034.42 1034.18 1033.92 1033.70 1033.52 1033.26 1033.04 1032.80 1032.58 1032.32 1032.10 1031.90 1031.70 1031.48 1031.24 1030.92 1030.58 1030.26 1030.02 1029.74 1029.46 1029.18 1028.86 1028.48 1028.14 1027.86 1027.58 1027.26 1026.96 1026.62 1026.30 1025.96 1025.54 1025.18 1024.82 1024.46 1023.96 1023.42 1022.98 1022.76 1022.64 1022.52 1022.46 1022.42 1022.48 1022.62 1022.76 1022.80 1022.74 1022.64 1022.54 1022.40 1022.26 1022.10 1022.02 1021.86 1021.70 1021.52 1021.36 1021.10 1020.86 1020.54 1020.24 1019.86
1035.64 1035.40 1035.18 1034.92 1034.70 1034.46 1034.18 1033.92 1033.74 1033.54 1033.32 1033.08 1032.86 1032.62 1032.32 1032.10 1031.92 1031.74 1031.48 1031.24 1030.96 1030.68 1030.42 1030.20 1029.92 1029.64 1029.40 1029.10 1028.76 1028.40 1028.08 1027.76 1027.46 1027.14 1026.80 1026.48 1026.14 1025.76 1025.46 1025.18 1024.82 1024.30 1023.70 1023.30 1023.10 1022.98 1022.86 1022.80 1022.70 1022.70 1022.76 1022.86 1022.98 1022.98 1022.90 1022.80 1022.64 1022.52 1022.40 1022.26 1022.14 1021.96 1021.74 1021.54 1021.32 1021.04 1020.76 1020.42 1020.08
1035.58 1035.40 1035.20 1034.96 1034.70 1034.42 1034.20 1033.98 1033.76 1033.58 1033.36 1033.10 1032.90 1032.64 1032.40 1032.14 1031.92 1031.74 1031.52 1031.26 1031.02 1030.76 1030.54 1030.36 1030.14 1029.90 1029.64 1029.36 1029.02 1028.64 1028.30 1027.96 1027.64 1027.30 1026.98 1026.68 1026.32 1025.98 1025.70 1025.46 1025.18 1024.64 1024.02 1023.54 1023.42 1023.30 1023.18 1023.08 1023.02 1022.96 1022.98 1023.04 1023.14 1023.18 1023.08 1022.98 1022.90 1022.76 1022.64 1022.48 1022.36 1022.14 1021.92 1021.70 1021.52 1021.24 1020.96 1020.62 1020.24
1035.58 1035.40 1035.20 1034.96 1034.70 1034.46 1034.20 1033.98 1033.76 1033.58 1033.40 1033.14 1032.92 1032.70 1032.46 1032.20 1032.02 1031.82 1031.62 1031.36 1031.08 1030.82 1030.62 1030.46 1030.26 1030.04 1029.76 1029.48 1029.20 1028.90 1028.52 1028.14 1027.82 1027.52 1027.20 1026.92 1026.54 1026.20 1025.92 1025.64 1025.42 1024.90 1024.24 1023.76 1023.64 1023.54 1023.42 1023.36 1023.30 1023.24 1023.20 1023.24 1023.32 1023.32 1023.30 1023.18 1023.08 1022.96 1022.82 1022.68 1022.52 1022.36 1022.14 1021.90 1021.64 1021.36 1021.08 1020.76 1020.36
1035.62 1035.40 1035.18 1034.96 1034.74 1034.48 1034.20 1033.98 1033.76 1033.58 1033.40 1033.18 1032.96 1032.70 1032.48 1032.26 1032.08 1031.90 1031.64 1031.36 1031.10 1030.86 1030.64 1030.48 1030.32 1030.14 1029.86 1029.54 1029.30 1029.02 1028.70 1028.36 1028.04 1027.74 1027.42 1027.14 1026.80 1026.46 1026.08 1025.82 1025.58 1025.08 1024.46 1024.02 1023.86 1023.74 1023.68 1023.58 1023.52 1023.48 1023.48 1023.48 1023.52 1023.54 1023.52 1023.40 1023.24 1023.10 1022.98 1022.82 1022.68 1022.52 1022.30 1022.08 1021.80 1021.54 1021.24 1020.92 1020.52
1035.58 1035.36 1035.18 1034.96 1034.74 1034.48 1034.20 1033.98 1033.80 1033.62 1033.40 1033.18 1032.98 1032.76 1032.54 1032.32 1032.10 1031.86 1031.62 1031.32 1031.08 1030.92 1030.76 1030.58 1030.42 1030.24 1030.02 1029.74 1029.46 1029.14 1028.86 1028.58 1028.26 1027.96 1027.64 1027.32 1026.98 1026.64 1026.26 1025.98 1025.76 1025.26 1024.70 1024.30 1024.02 1023.90 1023.82 1023.76 1023.74 1023.70 1023.70 1023.70 1023.76 1023.76 1023.68 1023.54 1023.40 1023.26 1023.10 1022.96 1022.76 1022.62 1022.40 1022.18 1021.96 1021.70 1021.42 1021.08 1020.74
1035.62 1035.40 1035.14 1034.92 1034.70 1034.46 1034.20 1034.02 1033.82 1033.64 1033.42 1033.20 1032.98 1032.80 1032.58 1032.36 1032.10 1031.90 1031.62 1031.32 1031.14 1030.98 1030.80 1030.64 1030.48 1030.30 1030.10 1029.86 1029.62 1029.36 1029.02 1028.70 1028.46 1028.18 1027.86 1027.48 1027.14 1026.76 1026.46 1026.20 1025.98 1025.62 1025.04 1024.52 1024.14 1023.98 1023.98 1023.92 1023.92 1023.92 1023.90 1023.90 1023.98 1023.92 1023.80 1023.64 1023.52 1023.40 1023.26 1023.10 1022.92 1022.70 1022.52 1022.30 1022.08 1021.86 1021.62 1021.30 1020.92
1035.64 1035.40 1035.10 1034.90 1034.64 1034.42 1034.20 1034.02 1033.86 1033.68 1033.48 1033.26 1033.04 1032.82 1032.62 1032.40 1032.20 1031.98 1031.70 1031.36 1031.18 1031.02 1030.82 1030.64 1030.46 1030.26 1030.08 1029.86 1029.68 1029.42 1029.18 1028.92 1028.64 1028.36 1028.04 1027.68 1027.32 1026.96 1026.64 1026.36 1026.14 1025.80 1025.30 1024.74 1024.30 1024.14 1024.10 1024.08 1024.04 1024.04 1024.08 1024.08 1024.10 1024.04 1023.90 1023.74 1023.62 1023.48 1023.36 1023.20 1023.02 1022.86 1022.68 1022.48 1022.30 1022.10 1021.86 1021.54 1021.18
1035.62 1035.40 1035.10 1034.86 1034.62 1034.40 1034.20 1034.04 1033.90 1033.70 1033.52 1033.30 1033.08 1032.86 1032.64 1032.42 1032.20 1031.98 1031.74 1031.42 1031.24 1031.08 1030.90 1030.68 1030.48 1030.26 1030.10 1029.92 1029.70 1029.48 1029.30 1029.10 1028.86 1028.54 1028.20 1027.90 1027.54 1027.20 1026.86 1026.54 1026.24 1025.90 1025.42 1024.86 1024.48 1024.30 1024.20 1024.14 1024.18 1024.18 1024.20 1024.24 1024.20 1024.10 1023.96 1023.82 1023.74 1023.62 1023.48 1023.32 1023.20 1023.02 1022.86 1022.70 1022.54 1022.40 1022.14 1021.86 1021.42
1035.58 1035.36 1035.10 1034.86 1034.62 1034.42 1034.26 1034.08 1033.92 1033.74 1033.54 1033.36 1033.14 1032.92 1032.70 1032.46 1032.24 1031.98 1031.74 1031.48 1031.36 1031.18 1030.96 1030.74 1030.54 1030.40 1030.24 1030.02 1029.80 1029.64 1029.46 1029.24 1029.02 1028.74 1028.42 1028.08 1027.76 1027.42 1027.08 1026.74 1026.42 1026.04 1025.54 1024.92 1024.68 1024.46 1024.30 1024.24 1024.26 1024.30 1024.36 1024.40 1024.32 1024.20 1024.10 1024.02 1023.90 1023.76 1023.64 1023.52 1023.42 1023.26 1023.10 1022.92 1022.76 1022.58 1022.40 1022.10 1021.70
1035.58 1035.30 1035.08 1034.86 1034.64 1034.46 1034.30 1034.10 1033.96 1033.76 1033.58 1033.40 1033.18 1032.96 1032.74 1032.48 1032.26 1032.02 1031.76 1031.54 1031.46 1031.30 1031.08 1030.82 1030.64 1030.48 1030.32 1030.10 1029.90 1029.68 1029.48 1029.30 1029.10 1028.86 1028.62 1028.32 1028.02 1027.64 1027.30 1026.98 1026.68 1026.30 1025.82 1025.18 1024.76 1024.54 1024.46 1024.40 1024.36 1024.36 1024.46 1024.52 1024.48 1024.40 1024.30 1024.24 1024.10 1024.02 1023.90 1023.80 1023.64 1023.48 1023.30 1023.10 1022.92 1022.76 1022.58 1022.32 1021.90
1035.54 1035.30 1035.04 1034.86 1034.64 1034.48 1034.32 1034.14 1033.98 1033.80 1033.58 1033.40 1033.14 1032.92 1032.70 1032.48 1032.26 1032.04 1031.82 1031.64 1031.52 1031.40 1031.18 1030.92 1030.74 1030.54 1030.32 1030.10 1029.90 1029.70 1029.48 1029.30 1029.10 1028.92 1028.74 1028.52 1028.20 1027.80 1027.46 1027.24 1026.92 1026.58 1026.14 1025.54 1024.92 1024.58 1024.46 1024.48 1024.40 1024.42 1024.52 1024.62 1024.62 1024.54 1024.48 1024.42 1024.36 1024.26 1024.18 1024.04 1023.86 1023.68 1023.48 1023.30 1023.10 1022.90 1022.70 1022.52 1022.10
1035.52 1035.26 1035.04 1034.82 1034.68 1034.52 1034.32 1034.18 1034.02 1033.82 1033.62 1033.40 1033.18 1032.96 1032.74 1032.52 1032.30 1032.04 1031.86 1031.64 1031.52 1031.36 1031.18 1030.92 1030.74 1030.54 1030.36 1030.10 1029.92 1029.76 1029.54 1029.32 1029.14 1028.96 1028.76 1028.58 1028.32 1027.96 1027.62 1027.46 1027.14 1026.80 1026.40 1025.86 1025.30 1024.80 1024.48 1024.40 1024.36 1024.42 1024.54 1024.68 1024.68 1024.64 1024.62 1024.58 1024.52 1024.46 1024.40 1024.24 1024.08 1023.86 1023.68 1023.46 1023.24 1022.98 1022.80 1022.62 1022.32
1035.48 1035.26 1035.08 1034.86 1034.68 1034.52 1034.32 1034.18 1033.98 1033.76 1033.58 1033.40 1033.20 1032.98 1032.74 1032.48 1032.30 1032.10 1031.92 1031.70 1031.48 1031.30 1031.08 1030.86 1030.68 1030.52 1030.36 1030.18 1029.98 1029.82 1029.64 1029.40 1029.18 1028.98 1028.80 1028.58 1028.40 1028.10 1027.82 1027.62 1027.30 1026.96 1026.58 1026.14 1025.62 1025.10 1024.70 1024.40 1024.30 1024.30 1024.42 1024.68 1024.70 1024.70 1024.70 1024.68 1024.64 1024.62 1024.54 1024.40 1024.24 1024.04 1023.82 1023.58 1023.30 1023.04 1022.82 1022.64 1022.46
Wind_Speed
8 8 9 10 9 9 8 8 8 8 8 8 9 9 9 9 9 9 9 9 9 9 9 9 10 11 12 15 16 16 15 15 16 17 18 18 17 17 17 16 16 15 15 15 14 13 12 11 11 9 9 9 9 9 9 8 9 9 10 10 9 10 11 12 12 12 12 13 10
8 8 9 10 10 9 8 8 8 9 9 8 8 8 9 9 9 9 9 9 9 9 9 9 11 12 14 15 15 15 15 16 17 18 18 18 17 17 17 16 16 16 16 16 15 13 11 11 10 9 9 8 9 9 9 9 9 10 11 12 10 9 9 10 10 11 11 11 10
8 8 8 9 9 9 8 8 9 10 10 9 8 8 9 9 9 9 9 9 10 10 10 10 11 13 14 15 15 15 15 16 17 17 17 16 16 17 17 16 16 16 16 15 14 13 12 12 11 10 9 8 9 9 9 9 9 10 11 11 9 8 8 8 8 9 8 8 9
8 8 9 10 10 10 10 9 10 11 11 9 9 9 9 9 8 9 9 10 11 11 10 11 11 12 13 14 15 16 16 17 18 18 17 16 16 17 17 16 16 16 16 15 14 14 14 13 10 9 9 9 10 10 9 9 9 9 9 9 8 8 7 7 7 7 7 7 8
8 8 9 10 10 10 10 10 10 10 10 9 8 8 8 9 9 9 10 10 10 11 11 13 12 12 13 14 16 17 17 18 18 17 16 16 16 16 16 16 16 16 15 15 15 15 14 13 10 8 8 9 9 9 9 9 10 9 8 7 7 7 7 7 7 7 7 8 8
9 9 9 9 9 9 9 9 9 9 9 8 9 9 9 8 9 10 10 11 11 12 13 14 14 14 14 15 16 16 17 16 16 15 16 16 16 16 16 17 17 16 15 14 15 15 14 13 10 8 8 8 9 9 10 10 10 9 9 8 8 7 7 8 8 8 8 9 10
9 9 10 10 10 10 9 9 9 8 8 8 9 10 10 10 11 12 12 12 11 12 12 13 13 14 14 15 16 16 16 16 15 16 16 16 16 16 17 17 16 16 15 15 15 14 13 12 9 9 9 9 8 9 10 9 9 9 9 9 8 8 8 9 8 8 9 11 13
8 9 10 10 11 11 11 10 9 8 8 8 9 10 11 12 13 14 13 12 12 12 12 12 14 15 15 16 16 17 17 17 16 16 16 15 17 17 17 17 16 16 16 15 14 14 13 11 9 8 8 8 8 8 9 10 10 11 11 11 10 9 8 8 7 8 9 12 14
8 8 9 10 11 12 11 10 9 9 9 9 10 11 12 14 14 14 13 12 12 12 13 13 15 16 16 17 17 17 17 16 17 17 16 16 17 17 17 16 16 16 15 15 14 14 14 11 9 8 8 8 8 9 9 10 11 12 12 11 10 9 9 8 9 10 11 12 13
9 9 10 10 11 12 12 10 9 10 10 11 12 12 13 15 14 13 12 11 12 13 14 14 15 16 17 18 17 17 17 16 16 17 17 17 18 18 17 16 16 16 15 15 14 14 13 11 10 9 9 9 10 10 11 11 12 12 12 10 10 10 11 11 11 11 12 12 13
10 11 11 11 12 12 11 10 10 10 10 11 12 12 13 13 13 12 12 12 13 14 15 15 16 17 17 17 17 17 17 17 16 17 18 18 18 18 18 17 17 17 16 16 14 13 11 10 10 11 11 10 11 11 11 11 12 12 12 10 11 12 12 13 12 11 11 11 12
11 11 12 12 12 11 11 10 10 10 11 12 12 12 12 11 12 12 13 13 14 14 15 16 17 17 17 16 16 17 17 17 18 18 18 18 18 18 18 17 18 18 17 17 14 12 11 11 11 12 13 12 10 9 10 11 11 11 12 12 12 12 12 12 12 10 9 10 11
11 12 12 12 12 11 11 11 10 10 10 12 12 11 11 11 12 13 13 14 14 14 14 16 17 17 17 16 17 17 17 18 19 19 18 18 18 18 18 17 18 18 18 17 15 13 12 12 12 13 13 12 10 10 10 11 11 11 11 12 12 12 12 12 11 10 10 10 11
11 12 12 12 12 11 11 11 10 10 10 11 11 11 11 11 12 13 13 13 14 14 15 15 15 16 16 17 17 18 18 19 19 20 20 19 19 18 18 17 18 18 18 17 16 15 14 13 13 13 13 12 11 11 11 10 10 11 11 11 11 11 11 11 11 11 10 10 10
12 12 12 12 12 11 11 11 10 10 10 11 11 11 11 11 12 12 13 13 14 14 14 15 15 16 17 18 18 19 19 19 20 21 21 21 20 20 20 19 19 19 19 18 17 16 16 15 14 13 12 12 11 11 10 10 10 10 10 10 10 10 11 11 11 10 9 9 8
12 12 12 12 12 12 11 11 10 10 10 11 11 11 11 11 11 12 13 13 13 13 14 15 16 16 16 17 18 19 19 19 20 21 21 21 21 22 22 21 21 20 20 20 18 17 15 13 12 11 10 10 10 10 10 10 10 9 9 9 9 10 10 11 11 10 8 6 4
12 12 12 12 12 12 12 11 10 10 11 11 12 12 11 11 11 12 13 14 13 14 15 16 16 15 16 17 17 18 18 19 20 20 21 22 22 23 23 23 22 21 20 17 15 13 11 10 8 8 8 8 8 8 9 9 8 8 8 9 9 9 10 10 9 8 6 4 3
12 12 12 12 12 12 12 12 12 11 11 12 12 12 12 12 12 12 13 14 14 15 16 17 16 16 16 17 16 16 17 18 20 21 22 23 23 23 24 24 24 22 18 14 10 7 5 4 4 4 4 5 6 6 7 7 7 7 7 7 8 7 6 5 5 4 4 4 5
12 12 12 12 12 12 12 13 12 12 12 12 12 12 12 13 13 13 13 13 15 16 17 17 16 16 16 17 17 17 17 17 20 22 23 24 24 24 24 24 24 21 19 19 17 15 12 8 5 3 1 1 3 4 5 5 5 5 5 5 4 4 5 6 7 7 7 7 8
12 12 12 12 12 12 12 12 12 12 12 12 12 13 13 13 13 13 13 14 15 16 16 16 16 16 16 17 17 18 17 16 19 21 23 24 25 25 24 24 22 19 19 23 22 21 20 18 15 12 8 6 4 4 3 3 4 4 5 7 9 10 11 11 10 10 10 10 10
11 12 12 12 12 11 11 12 12 12 12 12 12 13 13 13 13 13 13 14 15 15 16 16 16 16 17 17 18 18 17 16 18 20 21 23 25 25 24 22 19 16 17 21 21 22 22 22 20 18 16 14 13 12 11 10 11 12 13 13 13 13 13 13 12 12 12 12 12
11 11 11 11 11 12 12 12 12 12 12 12 12 12 12 12 12 13 13 13 14 15 15 15 15 16 16 16 17 17 17 16 17 18 20 21 23 24 23 21 18 15 15 20 19 20 20 20 20 19 18 17 17 17 17 16 16 16 16 16 15 15 14 14 13 13 13 13 13
11 11 11 10 11 12 12 12 12 11 11 12 12 12 12 12 12 12 13 13 14 14 14 13 13 14 15 15 16 16 17 17 18 19 19 20 21 22 23 21 18 16 15 17 17 17 17 17 17 17 17 16 17 18 18 17 16 16 16 16 16 15 15 14 14 14 13 13 13
10 10 10 9 10 11 11 11 11 11 11 12 12 12 12 12 12 12 13 13 14 14 13 12 12 13 14 14 15 16 16 17 18 19 20 20 21 21 21 19 18 16 14 16 18 19 17 15 14 14 15 15 15 15 15 15 15 15 14 15 15 15 15 15 15 15 14 14 13
10 10 10 10 10 11 11 11 11 11 11 11 12 12 12 12 12 12 13 13 14 13 13 12 12 13 13 14 15 15 16 16 17 18 19 20 20 20 19 17 16 13 12 16 24 25 23 19 16 13 12 12 13 13 13 13 13 13 13 13 13 13 14 14 15 15 15 14 13
10 10 10 10 10 10 11 11 11 11 11 11 11 12 12 12 12 12 13 13 13 13 12 12 12 13 14 14 15 15 16 15 16 17 17 18 19 20 19 16 14 11 12 20 26 27 27 25 22 18 13 11 11 11 11 11 12 12 12 12 12 12 12 13 14 15 15 14 13
10 10 10 11 10 11 11 10 10 10 11 11 11 12 12 11 11 12 12 12 12 12 11 11 12 13 14 13 14 16 16 15 15 15 16 17 18 19 18 16 13 11 14 24 27 27 26 26 25 22 17 12 11 10 10 10 11 11 11 11 12 12 12 12 13 13 14 14 13
10 10 10 11 10 10 10 10 10 10 11 11 11 11 12 12 12 12 12 12 12 11 11 11 11 11 11 11 13 15 16 15 15 15 15 16 17 18 18 16 14 13 17 27 28 27 27 26 25 23 20 14 10 9 10 10 11 10 10 10 11 12 11 11 11 12 13 13 12
10 10 10 11 10 10 10 10 10 10 11 11 11 11 12 12 12 12 12 12 12 11 10 9 10 10 10 11 13 14 15 15 14 14 15 16 16 17 17 17 15 15 19 28 28 28 27 27 26 25 22 18 12 9 8 9 9 9 9 9 10 11 11 11 11 12 13 13 12
10 10 10 10 10 10 10 10 10 10 10 10 11 11 12 12 12 13 12 12 11 11 10 9 9 10 11 12 12 13 13 14 13 14 15 16 16 17 17 17 16 14 17 27 27 28 27 27 26 25 24 21 15 10 8 8 8 9 9 9 10 11 12 12 12 13 13 13 12
9 9 10 10 10 10 10 10 10 10 10 10 11 11 12 12 12 12 12 11 10 10 10 10 10 11 12 12 11 12 13 13 13 14 14 15 16 16 16 16 16 15 17 25 26 26 27 27 26 25 24 21 15 11 8 8 8 8 8 9 10 12 12 11 12 13 15 15 13
9 10 10 10 10 10 10 10 10 10 11 11 11 12 12 12 11 11 11 10 10 10 10 10 10 11 12 12 12 12 12 13 13 14 14 15 15 16 16 15 15 16 17 23 24 25 26 26 26 25 24 21 15 11 8 8 8 8 8 9 11 12 12 12 12 13 15 16 15
9 9 10 10 10 10 10 10 10 10 11 11 11 11 12 12 11 11 11 10 10 10 10 9 10 10 10 11 11 11 12 12 13 14 15 15 15 15 16 15 14 16 20 22 22 23 24 25 25 24 23 20 14 10 8 8 7 8 8 9 10 11 12 13 13 14 15 16 16
10 10 10 10 10 10 10 10 10 10 11 11 11 11 11 11 11 11 11 11 10 9 9 9 8 8 8 9 9 10 11 12 12 13 14 14 14 15 15 14 12 17 22 22 21 21 23 24 24 23 21 18 12 9 8 8 8 8 9 10 10 11 12 13 14 15 16 17 16
10 10 10 10 9 9 9 10 10 10 10 11 11 11 11 11 11 10 10 12 11 9 8 8 8 8 8 8 8 9 10 12 12 12 13 13 14 14 15 14 14 18 23 24 21 21 21 22 22 22 19 15 10 8 8 8 8 9 10 11 11 12 12 12 13 13 15 16 16
9 10 10 10 10 9 9 9 10 10 10 11 11 11 11 10 9 9 10 11 11 10 9 9 9 9 9 8 8 8 9 10 11 12 12 13 13 14 14 15 15 19 23 25 23 21 20 21 21 20 17 12 8 7 8 8 8 9 10 11 11 11 11 11 11 12 13 14 15
9 10 10 10 9 9 9 9 9 10 10 10 10 10 10 10 9 9 9 10 9 9 9 9 9 9 9 8 8 7 8 9 10 11 12 13 13 13 13 14 15 18 22 25 24 22 20 19 19 18 15 10 8 8 8 8 8 9 10 10 10 10 10 9 9 10 11 13 15
9 9 9 9 9 9 9 9 9 9 10 10 9 9 8 8 8 8 9 10 8 8 9 8 8 8 8 8 8 9 9 9 10 10 11 11 12 12 12 13 14 17 20 25 25 23 21 19 18 16 13 8 7 7 7 7 7 8 8 8 9 9 9 7 7 8 9 12 17
9 9 9 9 9 9 9 9 9 9 9 9 8 8 8 7 7 8 9 9 7 7 7 7 7 8 8 9 8 9 9 10 10 10 10 10 11 12 13 12 13 15 18 24 25 25 23 21 18 16 13 8 6 6 6 6 7 7 7 7 7 8 8 7 6 6 7 10 17
9 9 9 9 9 8 8 8 8 8 7 8 8 8 8 8 7 8 9 8 7 7 7 7 7 8 8 9 8 9 9 10 9 10 10 10 11 13 13 11 12 13 16 21 24 25 24 23 19 16 12 7 5 5 5 5 6 6 6 6 6 6 7 7 6 6 6 8 12
9 9 9 9 9 8 8 8 8 7 7 7 8 7 7 8 8 8 8 7 7 7 7 7 8 8 8 9 8 8 9 10 10 10 10 10 11 11 11 10 10 12 14 18 22 23 24 24 22 18 13 8 5 4 4 5 5 6 6 6 6 6 6 6 6 6 6 7 8
Wind_Direction
349 349 348 348 348 346 343 339 340 341 340 335 332 331 329 327 326 324 323 322 320 318 317 316 315 313 313 313 313 315 317 320 321 320 318 317 315 314 313 311 310 308 307 306 305 303 301 300 298 297 296 295 294 294 294 294 293 291 289 287 286 286 285 285 283 283 283 283 283
347 348 348 348 348 345 342 340 341 341 339 334 331 329 327 326 324 322 321 320 318 316 315 314 314 313 313 315 317 320 322 322 321 319 317 316 314 313 312 310 309 308 307 306 305 303 300 299 298 297 296 295 295 294 294 292 291 289 286 286 285 284 283 283 283 284 286 287 289
347 346 347 347 347 345 343 341 340 338 335 331 329 327 325 323 322 321 319 318 317 316 316 316 315 315 316 318 321 322 322 320 318 317 315 314 312 311 310 309 308 307 306 305 304 302 300 299 298 296 295 296 295 294 292 289 287 286 285 285 285 284 284 284 287 290 292 294 296
346 346 346 346 345 343 341 338 336 334 332 328 325 324 322 322 320 319 317 317 317 318 318 317 316 317 319 321 321 320 318 316 315 314 312 311 310 309 309 308 307 306 305 304 303 301 300 299 297 295 294 293 291 289 288 288 287 286 285 285 285 286 287 288 292 295 297 298 297
345 345 344 343 340 338 336 334 330 328 326 323 321 320 320 320 319 318 318 320 321 321 320 319 318 320 321 320 318 316 314 313 312 311 310 309 308 307 307 307 306 305 304 303 302 301 300 299 296 293 291 290 288 286 286 287 287 287 286 286 288 289 291 293 295 297 298 297 295
341 339 338 337 335 333 331 328 323 320 318 317 316 316 317 318 318 319 321 322 321 320 320 320 321 321 320 318 315 313 312 310 310 309 307 306 306 306 306 305 304 303 302 301 300 299 298 297 294 291 290 289 286 285 285 286 287 287 288 289 291 293 294 295 295 295 294 293 291
335 334 334 335 335 333 329 324 320 316 314 314 315 316 316 315 317 320 321 321 321 322 323 324 323 321 318 315 313 311 311 310 308 307 307 306 306 305 305 304 303 301 300 298 297 296 295 294 292 290 289 288 286 285 284 284 285 287 288 290 291 292 292 291 291 291 290 289 290
331 331 332 334 335 333 330 325 320 318 316 318 320 319 319 318 322 324 324 323 324 325 325 324 321 317 314 313 312 311 311 310 308 308 307 306 305 304 303 302 301 299 298 296 294 294 293 292 289 287 285 284 283 282 282 283 284 285 286 287 287 288 287 287 287 287 288 288 289
331 332 333 334 336 335 332 325 321 320 321 323 324 324 324 325 327 327 327 325 326 325 324 321 318 316 314 313 313 312 312 311 310 309 308 307 306 304 303 302 301 299 297 295 293 292 291 289 285 281 278 277 278 279 281 282 283 283 283 283 283 284 285 285 286 287 287 288 288
334 337 339 339 338 336 332 326 325 326 327 328 329 328 327 329 328 327 326 325 325 324 322 319 318 317 316 316 315 314 314 313 312 310 309 307 306 305 304 302 301 299 297 295 293 292 290 285 280 276 273 272 274 276 278 279 279 279 279 280 282 285 286 286 286 286 287 287 287
338 342 344 343 339 335 332 330 331 333 334 334 332 330 329 328 326 325 325 325 325 323 321 319 319 319 318 318 318 317 316 315 314 311 309 307 306 305 304 302 300 298 296 295 293 291 287 282 277 274 273 272 273 275 275 276 276 277 278 279 282 285 286 285 286 286 286 286 287
344 346 345 342 338 335 334 335 336 337 336 335 333 331 328 326 325 325 326 327 325 323 321 320 321 321 321 321 320 319 318 316 314 311 308 307 306 305 303 302 300 298 295 293 291 287 283 278 276 275 274 274 274 274 274 274 276 277 279 280 281 283 284 285 287 287 287 287 287
348 348 345 340 336 336 337 340 338 337 336 335 332 330 328 326 326 327 328 328 326 324 323 323 323 323 323 323 322 320 319 317 314 311 309 308 307 305 304 302 299 297 294 291 288 283 278 275 274 273 273 274 273 272 273 274 276 278 279 280 281 282 284 287 288 289 289 289 290
349 347 344 338 338 339 341 341 339 337 335 334 332 330 328 327 328 329 329 328 326 325 324 324 325 326 325 324 323 321 320 317 315 313 311 310 310 308 306 303 299 296 292 289 285 280 276 273 272 271 272 272 272 272 273 274 275 275 276 278 281 284 286 288 289 289 290 291 291
349 347 343 338 339 340 341 341 339 336 334 332 330 329 329 328 328 329 329 328 327 326 326 326 327 326 326 325 324 323 321 319 317 315 314 313 313 311 309 305 300 296 292 287 284 280 276 273 272 271 271 271 271 272 273 273 273 274 276 278 281 283 284 285 287 287 288 287 290
349 346 342 339 339 339 339 339 337 334 333 331 329 329 328 328 328 329 330 329 328 327 327 328 328 327 326 326 326 325 323 321 319 318 317 317 316 315 312 310 306 301 295 289 285 281 277 273 270 268 267 267 269 270 271 272 274 275 276 278 279 279 280 280 280 279 277 276 291
348 345 341 337 337 336 336 336 334 332 330 329 328 328 328 327 328 329 330 330 329 328 328 329 329 328 327 327 327 326 325 323 322 321 321 320 320 320 319 318 316 312 307 299 293 287 281 275 268 262 259 260 263 267 269 271 274 276 277 279 277 275 274 275 275 272 268 271 316
346 343 339 335 334 334 334 333 332 330 328 327 328 328 327 327 328 328 329 330 329 329 329 329 329 328 328 327 327 327 327 326 326 325 324 325 326 327 328 329 329 329 332 339 341 337 324 300 277 258 250 252 258 265 269 274 278 281 282 281 278 275 275 282 298 308 315 319 324
344 341 337 334 333 333 332 331 330 329 328 328 327 327 326 326 327 328 330 330 330 331 331 330 330 329 329 328 327 328 329 329 329 328 329 329 332 335 338 340 341 347 2 20 26 31 33 35 36 40 29 267 272 274 279 285 289 290 291 300 324 358 24 30 23 15 4 351 338
342 339 335 332 332 332 331 330 329 329 329 328 327 326 326 326 328 330 331 331 332 332 332 331 330 330 329 329 329 330 331 332 333 333 333 334 337 340 344 349 347 358 17 31 33 35 38 41 43 44 45 40 24 9 359 1 6 17 28 32 32 32 31 29 23 18 11 4 355
339 336 332 330 331 330 330 330 330 329 329 327 326 326 326 327 329 331 333 332 332 332 332 331 331 330 330 330 331 332 333 335 336 337 337 338 340 343 347 352 349 2 23 35 34 34 36 38 39 40 41 41 39 38 37 38 36 34 33 31 28 24 21 18 15 11 7 4 1
336 333 330 328 329 330 331 331 330 329 328 327 326 326 327 329 331 333 334 334 334 333 332 331 331 331 330 330 331 332 335 337 339 340 341 342 342 344 348 352 352 6 28 40 37 36 35 34 34 34 35 37 37 36 35 34 31 28 25 22 19 16 14 12 9 5 2 360 358
333 330 328 328 329 330 331 331 330 329 328 327 327 327 329 331 333 334 336 336 335 333 332 331 332 331 331 330 332 334 337 339 341 342 343 345 345 347 349 351 356 9 29 41 43 41 37 32 30 29 29 32 32 32 31 30 27 24 21 18 15 12 9 7 4 1 358 356 355
331 328 327 328 330 330 330 330 330 329 329 327 327 328 330 333 335 337 339 338 336 333 332 332 333 333 332 333 334 337 340 342 343 344 345 347 348 349 351 352 354 3 19 35 43 45 45 39 32 28 26 27 29 29 29 28 26 23 20 17 13 10 6 3 0 357 355 352 352
329 327 327 329 330 331 330 331 330 330 328 327 328 330 332 335 338 340 340 339 336 333 332 334 336 337 337 337 338 340 343 346 345 345 346 347 349 351 353 353 354 358 11 27 38 44 48 47 42 35 28 25 26 27 27 26 24 22 20 17 14 10 5 1 358 355 352 348 348
328 327 329 331 332 332 331 331 330 329 328 328 330 332 334 337 340 341 341 340 336 334 334 340 341 343 343 341 340 342 345 347 347 347 348 349 350 352 354 354 352 356 12 26 32 37 42 45 45 43 37 28 25 24 23 22 21 20 18 16 14 11 7 2 358 354 350 345 344
328 329 332 333 333 333 332 331 331 331 331 331 332 333 335 338 340 342 342 340 336 335 339 345 345 346 345 342 342 344 346 347 347 348 349 350 352 354 355 354 350 357 17 30 33 35 38 40 42 43 41 35 28 24 22 19 18 17 16 15 12 10 7 3 360 355 350 344 342
328 331 332 333 333 332 331 331 333 333 334 333 333 334 335 338 341 342 342 340 338 340 345 350 348 347 346 344 344 344 344 346 347 348 350 352 354 355 356 354 348 1 22 34 36 37 37 38 40 41 41 39 32 26 22 20 17 16 15 13 10 8 5 4 1 357 353 346 343
330 331 332 332 332 331 330 332 334 335 335 334 334 335 337 340 342 343 342 340 341 344 349 351 348 347 346 345 343 343 343 345 346 348 350 352 355 357 357 355 347 2 25 37 38 39 39 38 39 39 39 38 35 28 22 20 17 15 13 12 9 6 4 3 1 358 355 349 344
332 332 332 331 330 330 331 333 336 336 336 335 335 337 339 341 343 343 342 340 342 345 349 349 348 347 345 343 342 342 343 343 345 347 350 351 354 356 357 356 347 0 26 39 40 40 40 39 38 38 38 37 34 30 23 19 17 15 13 10 7 5 3 1 360 358 355 351 345
333 333 331 331 330 329 330 333 336 337 337 336 337 338 340 342 342 342 341 338 340 343 346 348 348 346 344 342 342 342 341 342 344 347 349 350 351 353 355 357 348 359 25 42 42 42 41 40 39 38 37 35 32 28 21 17 16 14 11 8 6 4 3 0 359 357 355 351 346
334 333 332 331 330 329 330 334 337 338 337 337 338 339 341 341 341 339 338 336 339 343 345 346 347 346 344 343 342 342 341 342 344 345 346 347 348 350 353 357 348 357 19 39 43 44 42 41 40 38 36 35 32 26 19 17 15 12 9 6 4 3 2 1 359 356 354 352 346
334 333 333 332 329 329 332 336 337 338 338 338 339 340 341 340 339 339 338 338 341 343 344 343 345 345 344 343 341 340 341 342 342 342 342 344 345 348 352 356 349 355 9 30 42 45 43 42 40 39 37 35 32 25 18 17 15 12 9 5 4 2 2 1 359 357 355 352 347
333 333 333 332 330 331 334 336 337 338 338 339 339 340 340 340 340 339 338 339 342 342 342 340 341 342 342 342 340 340 340 342 340 339 339 340 343 347 351 355 350 352 1 20 40 45 44 42 41 40 38 35 32 25 18 17 15 13 9 5 3 2 1 0 359 357 354 351 347
332 332 332 331 331 333 336 338 337 338 338 339 339 339 339 339 338 337 336 338 341 340 338 336 338 340 342 342 341 340 341 340 338 337 337 338 341 345 349 350 348 349 356 15 36 44 43 42 41 40 39 36 31 25 20 18 16 12 8 5 2 0 360 359 358 356 353 349 346
329 329 329 329 331 335 337 338 338 338 338 339 338 338 337 336 335 335 335 338 340 339 337 335 337 340 342 342 341 341 340 338 335 335 335 338 339 343 346 347 345 344 351 8 30 40 44 43 42 41 40 37 31 25 22 20 16 11 7 4 0 357 356 356 355 354 351 346 345
325 325 325 326 331 335 338 338 337 337 337 337 336 336 334 333 333 333 336 340 340 338 335 333 336 338 339 338 336 335 334 334 334 334 334 336 336 340 345 346 343 341 345 358 19 33 43 46 45 44 42 39 32 27 24 21 16 11 7 3 356 352 350 350 352 351 349 344 345
321 321 322 324 330 334 336 336 336 335 335 334 334 332 332 331 331 333 336 340 338 335 332 330 332 333 333 332 332 332 332 332 334 334 333 332 332 338 345 347 342 340 342 348 5 21 37 45 49 50 49 46 38 31 27 23 17 11 6 360 352 346 343 342 346 347 346 343 347
318 319 321 323 328 331 333 333 332 332 332 332 331 330 330 330 331 333 334 337 334 331 328 326 327 327 328 332 334 334 333 331 333 333 332 328 328 337 345 347 340 338 339 342 353 7 23 38 49 55 58 56 49 41 34 28 20 12 4 357 350 343 338 334 339 342 342 341 347
318 319 321 323 326 328 328 328 328 328 330 332 331 330 329 329 330 331 331 332 331 329 327 324 323 324 328 335 336 335 333 331 332 332 330 326 326 334 341 343 337 335 337 340 346 356 9 23 39 53 64 67 60 52 45 36 25 15 5 356 349 343 337 332 334 338 341 341 345
318 319 321 322 323 323 324 324 325 327 329 331 329 328 328 329 329 329 330 330 331 330 328 325 324 325 329 337 338 336 334 331 331 329 327 326 324 329 334 335 332 331 334 337 342 350 359 10 23 38 57 77 70 61 53 43 30 18 7 355 350 344 338 333 334 340 345 347 345